Location: Unspecified
(41.1637°N, 24.2901°E)
Time: 00:18:27
(UTC+02:00)

ISS - Visible Passes

Search period start: 22 October 2019 00:00
Search period end: 31 October 2019 23:00
Orbit: 411 x 421 km, 51.6° (Epoch: 21 October)

Date Brightness Start Highest point End Pass type
(mag) Time Alt. Az. Time Alt. Az. Time Alt. Az.
23 Oct -1.5 06:01:49 10° SSW 06:04:43 27° SE 06:07:36 10° ENE visible
24 Oct -0.8 05:14:10 10° S 05:16:17 16° SE 05:18:25 10° E visible
25 Oct -3.6 06:00:44 10° SW 06:04:05 79° SE 06:07:27 10° ENE visible
26 Oct -2.7 05:13:48 23° SSW 05:15:32 43° SE 05:18:45 10° ENE visible
27 Oct -1.4 03:27:50 22° ESE 03:27:50 22° ESE 03:29:51 10° ENE visible
27 Oct -3.2 05:00:46 12° W 05:03:38 41° NNW 05:06:50 10° NE visible
28 Oct -3.8 04:14:37 61° WNW 04:14:57 67° NW 04:18:18 10° NE visible
29 Oct -1.3 03:28:20 22° ENE 03:28:20 22° ENE 03:29:40 10° ENE visible
29 Oct -2.2 05:01:14 14° WNW 05:03:19 22° NNW 05:06:03 10° NE visible
30 Oct -2.5 04:14:50 29° NNW 04:14:50 29° NNW 04:17:32 10° NE visible
31 Oct -0.9 03:28:19 15° NE 03:28:19 15° NE 03:29:00 10° NE visible
31 Oct -1.6 05:01:13 11° NW 05:03:07 16° N 05:05:16 10° NNE visible
